SCP
0 0 0 0 0 0 0 0 0 0 0 0 0 0 0 0 0 0 0 0 0 0
0 0 0 0 0 0 0 0 0 0 0 0 0 0 0 0 0 0 0 0 0 0
0 0 0 0 0 0 0 0 0 0 0 0 0 0 0 0 0 0 0 0 0 0
0 0 0 0 0 0 0 0 0 0 0 0 0 0 0 0 0 0 0 0 0 0
0 0 0 0 0 0 0 0 0 0 0 0 0 0 0 0 0 0 0 0 0 0
0 0 0 0 0 0 0 0 0 0 0 0 0 0 0 0 0 0 0 0 0 0
0 0 0 0 0 0 0 0 0 0 0 0 0 0 0 0 0 0 0 0 0 0
0 0 0 0 0 0 0 0 0 0 0 0 0 0 0 0 0 0 0 0 0 0
0 0 0 0 0 0 0 0 0 0 0 0 0 0 0 0 0 0 0 0 0 0
0 0 0 0 0 0 0 0 0 0 0 0 0 0 0 0 0 0 0 0 0 0
0 0 0 0 0 0 0 0 0 0 0 0 0 0 0 0 0 0 0 0 0 0
0 0 0 0 0 0 0 0 0 0 0 0 0 0 0 0 0 0 0 0 0 0
0 0 0 0 0 0 0 0 0 0 0 0 0 0 0 0 0 0 0 0 0 0
0 0 0 0 0 0 0 0 0 0 0 0 0 0 0 0 0 0 0 0 0 0
Wind_Speed_500mb
39 37 31 31 25 24 20 17 19 22 18 19 23 23 24 18 18 20 16 16 16 15
45 37 34 30 28 22 26 26 24 20 16 19 20 18 18 16 17 15 15 15 16 16
44 44 34 32 29 33 30 25 23 15 17 18 18 17 14 10 15 13 13 13 15 15
47 39 40 35 36 31 27 28 16 16 16 14 11 14 14 12 12 11 13 14 16 17
44 49 48 40 32 32 31 21 18 15 12 8 11 13 10 10 10 11 13 15 15 16
49 51 43 38 37 33 25 18 15 12 9 9 10 9 10 8 9 11 12 13 14 16
45 44 42 40 36 29 21 16 14 12 11 10 7 5 6 7 8 10 12 15 15 15
45 45 43 38 32 27 21 16 15 12 10 7 3 7 5 2 7 9 11 14 15 17
47 45 42 37 31 25 20 16 14 11 8 5 12 8 9 8 4 10 10 13 15 18
46 44 40 34 27 22 18 15 13 12 10 10 19 10 10 10 6 10 12 14 16 18
47 44 39 31 25 20 18 15 14 13 12 10 19 12 12 12 12 11 16 17 18 19
44 39 34 29 24 20 19 17 16 14 13 10 22 12 13 12 9 12 17 19 21 23
39 34 30 26 24 22 19 18 16 15 12 17 18 14 14 14 9 12 17 17 18 30
36 32 29 26 23 21 20 19 17 14 13 10 12 22 17 17 11 14 18 17 16 24
Wind_Direction_500mb
190 189 191 193 195 193 195 192 213 223 259 294 306 315 327 331 348 342 350 343 346 344
188 190 186 195 192 188 189 202 220 241 271 285 298 316 340 338 343 353 344 346 336 340
189 186 190 186 181 187 195 199 230 251 270 287 310 322 343 350 333 353 342 340 342 343
188 180 193 182 189 195 195 223 230 250 272 297 307 320 330 345 340 353 349 348 341 340
176 184 192 189 187 192 212 215 235 258 270 276 299 315 328 337 340 354 353 345 343 335
182 190 185 183 192 204 209 221 243 243 248 270 292 305 330 349 359 354 345 338 336 333
174 175 180 188 196 202 210 216 228 232 252 278 281 318 355 352 351 344 330 332 329 327
170 177 184 190 192 196 200 216 228 237 253 252 245 266 286 304 335 330 329 326 321 316
172 179 184 188 189 198 210 216 225 224 217 202 230 299 311 316 331 322 329 323 318 319
173 181 183 185 192 203 203 206 209 198 199 183 256 299 318 318 331 321 313 317 316 315
176 177 181 183 187 191 193 194 188 187 182 189 264 306 314 325 347 317 310 312 310 310
172 173 173 173 182 180 178 176 183 186 187 193 273 298 315 322 349 302 307 304 309 292
167 173 172 180 174 173 174 177 184 184 194 207 252 287 308 318 330 315 299 310 311 299
171 171 176 173 172 169 173 180 184 191 201 210 198 283 304 320 324 299 306 311 309 302
Wind_Speed_850mb
39 37 31 31 25 24 20 17 19 22 18 19 23 23 24 18 18 20 16 16 16 15
45 37 34 30 28 22 26 26 24 20 16 19 20 18 18 16 17 15 15 15 16 16
44 44 34 32 29 33 30 25 23 15 17 18 18 17 14 10 15 13 13 13 15 15
47 39 40 35 36 31 27 28 16 16 16 14 11 14 14 12 12 11 13 14 16 17
44 49 48 40 32 32 31 21 18 15 12 8 11 13 10 10 10 11 13 15 15 16
49 51 43 38 37 33 25 18 15 12 9 9 10 9 10 8 9 11 12 13 14 16
45 44 42 40 36 29 21 16 14 12 11 10 7 5 6 7 8 10 12 15 15 15
45 45 43 38 32 27 21 16 15 12 10 7 3 7 5 2 7 9 11 14 15 17
47 45 42 37 31 25 20 16 14 11 8 5 12 8 9 8 4 10 10 13 15 18
46 44 40 34 27 22 18 15 13 12 10 10 19 10 10 10 6 10 12 14 16 18
47 44 39 31 25 20 18 15 14 13 12 10 19 12 12 12 12 11 16 17 18 19
44 39 34 29 24 20 19 17 16 14 13 10 22 12 13 12 9 12 17 19 21 23
39 34 30 26 24 22 19 18 16 15 12 17 18 14 14 14 9 12 17 17 18 30
36 32 29 26 23 21 20 19 17 14 13 10 12 22 17 17 11 14 18 17 16 24
Wind_Direction_850mb
190 189 191 193 195 193 195 192 213 223 259 294 306 315 327 331 348 342 350 343 346 344
188 190 186 195 192 188 189 202 220 241 271 285 298 316 340 338 343 353 344 346 336 340
189 186 190 186 181 187 195 199 230 251 270 287 310 322 343 350 333 353 342 340 342 343
188 180 193 182 189 195 195 223 230 250 272 297 307 320 330 345 340 353 349 348 341 340
176 184 192 189 187 192 212 215 235 258 270 276 299 315 328 337 340 354 353 345 343 335
182 190 185 183 192 204 209 221 243 243 248 270 292 305 330 349 359 354 345 338 336 333
174 175 180 188 196 202 210 216 228 232 252 278 281 318 355 352 351 344 330 332 329 327
170 177 184 190 192 196 200 216 228 237 253 252 245 266 286 304 335 330 329 326 321 316
172 179 184 188 189 198 210 216 225 224 217 202 230 299 311 316 331 322 329 323 318 319
173 181 183 185 192 203 203 206 209 198 199 183 256 299 318 318 331 321 313 317 316 315
176 177 181 183 187 191 193 194 188 187 182 189 264 306 314 325 347 317 310 312 310 310
172 173 173 173 182 180 178 176 183 186 187 193 273 298 315 322 349 302 307 304 309 292
167 173 172 180 174 173 174 177 184 184 194 207 252 287 308 318 330 315 299 310 311 299
171 171 176 173 172 169 173 180 184 191 201 210 198 283 304 320 324 299 306 311 309 302